Location: Newark
(53.2933°N, 6.3959°W)
Time: 12:25:36
(UTC+00:00)

Envisat - Pass Details

Date: 29 February 2020
Orbit: 764 x 766 km, 98.1° (Epoch: 05 April)

Event Time Altitude Azimuth Distance (km) Brightness Sun altitude
Rises 06:09:36 0° 22° (NNE) 3,247 6.6 -10.5°
Reaches altitude 10° 06:12:17 10° 35° (NE) 2,316 6.0 -10.1°
Maximum altitude 06:16:33 26° 92° (E) 1,463 5.5 -9.4°
Drops below altitude 10° 06:20:48 10° 149° (SSE) 2,300 5.9 -8.8°
Sets 06:23:26 0° 161° (SSE) 3,220 6.5 -8.4°
